Stündliche Wetter Kyselykha

Heute, 18 Mai, Dienstag

Zeit Temperatur Niederschläge Wind Luftdruck Luftfeuchtigkeit
00:00 +16°C° 0 mm 2 m/S 741 mmHg 93%
01:00 +16°C° 0 mm 2 m/S 740 mmHg 93%
02:00 +15°C° 0 mm 2 m/S 740 mmHg 94%
03:00 +15°C° 0 mm 2 m/S 740 mmHg 94%
04:00 +15°C° 0 mm 2 m/S 740 mmHg 94%
05:00 +15°C° 0 mm 2 m/S 740 mmHg 93%
06:00 +16°C° 0.2 mm 2 m/S 740 mmHg 90%
07:00 +17°C° 0.2 mm 2 m/S 740 mmHg 87%
08:00 +18°C° 0.2 mm 3 m/S 740 mmHg 84%
09:00 +19°C° 0.8 mm 3 m/S 740 mmHg 79%
10:00 +20°C° 0.8 mm 4 m/S 740 mmHg 75%
11:00 +21°C° 0.8 mm 4 m/S 740 mmHg 70%
12:00 +21°C° 0.7 mm 5 m/S 740 mmHg 69%
13:00 +21°C° 0.7 mm 5 m/S 739 mmHg 68%
14:00 +21°C° 0.7 mm 6 m/S 739 mmHg 67%
15:00 +20°C° 0.6 mm 6 m/S 739 mmHg 71%
16:00 +20°C° 0.6 mm 6 m/S 739 mmHg 74%
17:00 +19°C° 0.6 mm 6 m/S 739 mmHg 78%
18:00 +17°C° 0.2 mm 5 m/S 739 mmHg 81%
19:00 +15°C° 0.2 mm 5 m/S 739 mmHg 85%
20:00 +14°C° 0.2 mm 4 m/S 739 mmHg 89%
21:00 +14°C° 0 mm 4 m/S 739 mmHg 91%
22:00 +13°C° 0 mm 4 m/S 739 mmHg 94%
23:00 +13°C° 0 mm 4 m/S 739 mmHg 96%

Morgen, 19 Mai, Mittwoch

Zeit Temperatur Niederschläge Wind Luftdruck Luftfeuchtigkeit
00:00 +13°C° 0 mm 4 m/S 739 mmHg 96%
01:00 +13°C° 0 mm 4 m/S 739 mmHg 96%
02:00 +12°C° 0 mm 4 m/S 739 mmHg 97%
03:00 +12°C° 0 mm 4 m/S 739 mmHg 96%
04:00 +12°C° 0 mm 4 m/S 739 mmHg 96%
05:00 +12°C° 0 mm 4 m/S 739 mmHg 95%
06:00 +13°C° 0 mm 4 m/S 740 mmHg 90%
07:00 +14°C° 0 mm 5 m/S 740 mmHg 84%
08:00 +15°C° 0 mm 5 m/S 740 mmHg 79%
09:00 +16°C° 0.2 mm 5 m/S 740 mmHg 73%
10:00 +17°C° 0.2 mm 5 m/S 740 mmHg 67%
11:00 +19°C° 0.2 mm 5 m/S 740 mmHg 61%
12:00 +20°C° 0.5 mm 5 m/S 740 mmHg 61%
13:00 +20°C° 0.5 mm 4 m/S 740 mmHg 60%
14:00 +20°C° 0.5 mm 4 m/S 740 mmHg 59%
15:00 +20°C° 0.3 mm 3 m/S 740 mmHg 61%
16:00 +19°C° 0.3 mm 3 m/S 740 mmHg 63%
17:00 +19°C° 0.3 mm 2 m/S 739 mmHg 65%
18:00 +17°C° 0.2 mm 2 m/S 740 mmHg 71%
19:00 +16°C° 0.2 mm 2 m/S 740 mmHg 77%
20:00 +14°C° 0.2 mm 2 m/S 740 mmHg 83%
21:00 +14°C° 0.1 mm 2 m/S 740 mmHg 85%
22:00 +13°C° 0.1 mm 2 m/S 740 mmHg 88%
23:00 +13°C° 0.1 mm 2 m/S 740 mmHg 91%

übermorgen, 20 Mai, Donnerstag

Zeit Temperatur Niederschläge Wind Luftdruck Luftfeuchtigkeit
00:00 +11°C° 0 mm 3 m/S 740 mmHg 93%
01:00 +11°C° 0 mm 3 m/S 740 mmHg 95%
02:00 +10°C° 0 mm 3 m/S 740 mmHg 97%
03:00 +11°C° 0.1 mm 4 m/S 741 mmHg 96%
04:00 +11°C° 0.1 mm 4 m/S 741 mmHg 95%
05:00 +11°C° 0.1 mm 4 m/S 741 mmHg 94%
06:00 +10°C° 0 mm 5 m/S 742 mmHg 92%
07:00 +10°C° 0 mm 5 m/S 742 mmHg 89%
08:00 +12°C° 0 mm 5 m/S 742 mmHg 87%
09:00 +12°C° 0 mm 5 m/S 743 mmHg 83%
10:00 +13°C° 0 mm 5 m/S 743 mmHg 80%
11:00 +14°C° 0 mm 5 m/S 744 mmHg 76%
12:00 +15°C° 0 mm 5 m/S 744 mmHg 73%
13:00 +16°C° 0 mm 5 m/S 744 mmHg 69%
14:00 +17°C° 0 mm 6 m/S 744 mmHg 66%
15:00 +17°C° 0.1 mm 5 m/S 744 mmHg 67%
16:00 +18°C° 0.1 mm 4 m/S 745 mmHg 68%
17:00 +18°C° 0.1 mm 4 m/S 745 mmHg 68%
18:00 +16°C° 0 mm 3 m/S 745 mmHg 74%
19:00 +15°C° 0 mm 2 m/S 745 mmHg 80%
20:00 +13°C° 0 mm 2 m/S 746 mmHg 86%
21:00 +13°C° 0.1 mm 1 m/S 746 mmHg 87%
22:00 +13°C° 0.1 mm 1 m/S 746 mmHg 89%
23:00 +13°C° 0.1 mm 1 m/S 746 mmHg 90%

21 Mai, Freitag

Zeit Temperatur Niederschläge Wind Luftdruck Luftfeuchtigkeit
00:00 +13°C° 1.4 mm 1 m/S 746 mmHg 92%
01:00 +12°C° 1.4 mm 2 m/S 746 mmHg 93%
02:00 +12°C° 1.4 mm 2 m/S 747 mmHg 95%
03:00 +12°C° 0.2 mm 2 m/S 747 mmHg 94%
04:00 +11°C° 0.2 mm 3 m/S 746 mmHg 93%
05:00 +11°C° 0.2 mm 3 m/S 746 mmHg 92%
06:00 +11°C° 0.1 mm 3 m/S 746 mmHg 91%
07:00 +12°C° 0.1 mm 4 m/S 747 mmHg 89%
08:00 +12°C° 0.1 mm 4 m/S 747 mmHg 88%
09:00 +13°C° 0.3 mm 4 m/S 747 mmHg 88%
10:00 +13°C° 0.3 mm 4 m/S 747 mmHg 88%
11:00 +14°C° 0.3 mm 4 m/S 747 mmHg 89%
12:00 +14°C° 0.1 mm 5 m/S 746 mmHg 88%
13:00 +15°C° 0.1 mm 5 m/S 746 mmHg 88%
14:00 +15°C° 0.1 mm 5 m/S 746 mmHg 88%
15:00 +15°C° 0.1 mm 5 m/S 746 mmHg 88%
16:00 +15°C° 0.1 mm 5 m/S 746 mmHg 88%
17:00 +15°C° 0.1 mm 5 m/S 746 mmHg 88%
18:00 +15°C° 0.2 mm 5 m/S 746 mmHg 91%
19:00 +14°C° 0.2 mm 5 m/S 746 mmHg 93%
20:00 +13°C° 0.2 mm 5 m/S 746 mmHg 96%
21:00 +13°C° 0.3 mm 5 m/S 746 mmHg 96%
22:00 +13°C° 0.3 mm 5 m/S 746 mmHg 96%
23:00 +13°C° 0.3 mm 5 m/S 746 mmHg 96%

22 Mai, Samstag

Zeit Temperatur Niederschläge Wind Luftdruck Luftfeuchtigkeit
00:00 +12°C° 0 mm 5 m/S 746 mmHg 96%
01:00 +12°C° 0 mm 5 m/S 746 mmHg 96%
02:00 +12°C° 0 mm 5 m/S 746 mmHg 97%
03:00 +12°C° 0 mm 4 m/S 746 mmHg 96%
04:00 +12°C° 0 mm 4 m/S 746 mmHg 96%
05:00 +12°C° 0 mm 4 m/S 746 mmHg 96%
06:00 +13°C° 0 mm 5 m/S 746 mmHg 94%
07:00 +13°C° 0 mm 5 m/S 746 mmHg 92%
08:00 +14°C° 0 mm 6 m/S 746 mmHg 91%
09:00 +15°C° 0 mm 5 m/S 747 mmHg 88%
10:00 +16°C° 0 mm 5 m/S 747 mmHg 86%
11:00 +16°C° 0 mm 5 m/S 747 mmHg 83%
12:00 +18°C° 0 mm 4 m/S 747 mmHg 81%
13:00 +19°C° 0 mm 4 m/S 747 mmHg 79%
14:00 +19°C° 0 mm 4 m/S 747 mmHg 77%
15:00 +19°C° 0 mm 4 m/S 747 mmHg 79%
16:00 +19°C° 0 mm 3 m/S 747 mmHg 81%
17:00 +19°C° 0 mm 3 m/S 747 mmHg 83%
18:00 +18°C° 0 mm 3 m/S 747 mmHg 86%
19:00 +17°C° 0 mm 3 m/S 747 mmHg 89%
20:00 +16°C° 0 mm 3 m/S 747 mmHg 92%
21:00 +14°C° 0 mm 3 m/S 747 mmHg 93%
22:00 +14°C° 0 mm 3 m/S 748 mmHg 94%
23:00 +14°C° 0 mm 2 m/S 748 mmHg 95%

23 Mai, Sonntag

Zeit Temperatur Niederschläge Wind Luftdruck Luftfeuchtigkeit
00:00 +14°C° 0 mm 2 m/S 748 mmHg 95%
01:00 +14°C° 0 mm 2 m/S 747 mmHg 95%
02:00 +13°C° 0 mm 2 m/S 747 mmHg 96%
03:00 +14°C° 0 mm 2 m/S 747 mmHg 96%
04:00 +14°C° 0 mm 2 m/S 747 mmHg 95%
05:00 +14°C° 0 mm 2 m/S 747 mmHg 95%
06:00 +16°C° 0 mm 2 m/S 747 mmHg 89%
07:00 +18°C° 0 mm 2 m/S 747 mmHg 83%
08:00 +20°C° 0 mm 3 m/S 747 mmHg 77%
09:00 +21°C° 0 mm 3 m/S 747 mmHg 72%
10:00 +22°C° 0 mm 3 m/S 747 mmHg 67%
11:00 +24°C° 0 mm 2 m/S 747 mmHg 62%
12:00 +24°C° 0 mm 2 m/S 747 mmHg 59%
13:00 +25°C° 0 mm 2 m/S 747 mmHg 56%
14:00 +25°C° 0 mm 2 m/S 747 mmHg 53%
15:00 +25°C° 0 mm 3 m/S 747 mmHg 57%
16:00 +25°C° 0 mm 3 m/S 747 mmHg 60%
17:00 +24°C° 0 mm 3 m/S 747 mmHg 63%
18:00 +21°C° 0 mm 3 m/S 747 mmHg 69%
19:00 +19°C° 0 mm 2 m/S 747 mmHg 75%
20:00 +17°C° 0 mm 2 m/S 747 mmHg 82%
21:00 +17°C° 0 mm 2 m/S 747 mmHg 84%
22:00 +16°C° 0 mm 2 m/S 747 mmHg 86%
23:00 +15°C° 0 mm 2 m/S 747 mmHg 88%
Mehr zeigen

Wir brauchen deine Erlaubnis

Meteoprog und unser Service Anbieter werden persönliche Daten aufbewahren, so wie Cookies, Geräte Bezeichnung oder ähnliche Technologien von deinem Gerät und Prozess, so wie Persönliche Daten Inhalte und Werbungen, genauso wie social Media und den Verkehr zu analysieren.

  • Aufbewahrung und/oder Zugang zu deiner Geräte Informationen.

    Cookies, Geräte Bezeichnung oder andere Informationen, können aufbewahrt oder Zugang zu deinem Gerät erhalten, für den Grund, der oben angegeben wird.

  • Personalisierte Werbung und Inhalte, Messungen, Einblick in das Publikum und Produkt Entwicklung.

    Werbungen und Inhalte können personalisiert werden, basierend auf ein Profil. Mehr Daten können besser personalisierte Werbungen und Inhalte hinzufügen. Werbung und Inhalte können gezeigt und gemessen werden. Einblicke über das Publikum, welche die Werbung gesehen haben und den Inhalt, können abgeleitet werden. So wie Daten können genutzt werden, um es zu verbessern oder die Benutzer Erfahrung zu verbessern das System und die Software.

Wenn du “Ich stimme zu” klickst, erlaubst du uns, die Cookies zu benutzen die Geräte Bezeichnung, den Web oder ähnliche Technologien zu benutzen. Deine Settings, können in deinem Gerät bei deinem Browser geändert werden.

Für den bestimmten Zweck, berechtigten Interessen beruhen darauf, mehr als auf den Inhalt. Du kannst mehr darüber in unseren Privaten und Cookie Politik lesen.